User: anonymous   Login
Location: Nianha
(10.8000°N, 4.6333°W)
Time: 01:52:20
(UTC+00:00)
Language:

STARLINK-41 - Orbit

View from above orbital plane
View from above orbital plane
View from above satellite
View from above satellite

Ground track
Ground track

The orbit data is extracted from the following two-line orbital elements,

1 44277U 19029AU  20047.91667824  .00671734  00000-0  14049-1 0  9998
2 44277  53.0073  37.2971 0007367 271.5041 101.3751 15.42745414 40768
Epoch (UTC): 16 February 2020 22:00:01
Eccentricity: 0.0007367
inclination: 53.0073°
perigee height: 433 km
apogee height: 443 km
right ascension of ascending node: 37.2971°
argument of perigee: 271.5041°
revolutions per day: 15.42745414
mean anomaly at epoch: 101.3751°
orbit number at epoch: 4076

The dashed part of the orbit path shows where the satellite is in the earth's shadow,  

DLR